Weather History for KILN - February, 2013

Change the Weather History Date:

Sunday, February 3, 2013

  Actual Average (KDAY) Record (KDAY)
Temperature  
Mean Temperature 21 °F 28 °F  
Max Temperature 26 °F 36 °F 62 °F (1927)
Min Temperature 15 °F 21 °F -12 °F (1985)
Degree Days  
Heating Degree Days 44 36  
Month to date heating degree days 110  
Since 1 July heating degree days 3433  
Cooling Degree Days 0 0  
Month to date cooling degree days 0  
Year to date cooling degree days 0  
Moisture  
Dew Point 15 °F    
Average Humidity 78    
Maximum Humidity 88    
Minimum Humidity 65    
Precipitation  
Precipitation 0.02 in 0.08 in 0.76 in (1901)
Month to date precipitation 0.25  
Year to date precipitation 2.96  
Snow  
Snow 0.00 in 0.20 in 3.40 in (2000)
Month to date snowfall 0.7  
Since 1 July snowfall 14.1  
Snow Depth -    
Sea Level Pressure  
Sea Level Pressure 30.04 in    
Wind  
Wind Speed 10 mph (West)    
Max Wind Speed 17 mph    
Max Gust Speed 22 mph    
Visibility 8 miles    
Events Snow    
T = Trace of Precipitation, MM = Missing Value Source: NWS Daily Summary

Daily Weather History Graph

Daily Weather History Graph

Search for Another Location

Airport or City:

Trip Planner

Search our weather history database for the weather conditions in past years. The results will help you decide how hot, cold, wet, or windy it might be!

Date:

Astronomy

Feb. 03, 2013 Rise Set
Actual Time 7:40 AM EST 5:58 PM EST
Civil Twilight 7:12 AM EST 6:26 PM EST
Nautical Twilight 6:40 AM EST 6:58 PM EST
Astronomical Twilight 6:08 AM EST 7:30 PM EST
Moon 1:06 AM EST (2/3) 11:35 AM EST (2/3)
Length of Visible Light 11h 14m
Length of Day
10h 17m
Waning Gibbous, 49% of the Moon is Illuminated
Feb 3
Waning Gibbous
Feb 10
New
Feb 17
First Quarter
Feb 25
Full
Mar 4
Last Quarter

Hourly Weather History & Observations

Time (EST) Temp. Windchill Dew Point Humidity Pressure Visibility Wind Dir Wind Speed Gust Speed Precip Events Conditions
12:54 AM 26.1 °F 18.4 °F 21.9 °F 84% 30.06 in 7.0 mi West 6.9 mph - 0.00 in   Overcast
1:54 AM 26.1 °F 17.6 °F 21.0 °F 81% 30.04 in 7.0 mi West 8.1 mph - N/A   Overcast
2:54 AM 25.0 °F 19.3 °F 19.9 °F 81% 30.03 in 8.0 mi WSW 4.6 mph - N/A   Overcast
3:43 AM 24.8 °F 20.5 °F 21.2 °F 86% 29.92 in 2.5 mi WSW 3.5 mph - 0.00 in Snow Light Snow
3:54 AM 25.0 °F 20.7 °F 21.0 °F 85% 30.00 in 2.5 mi WSW 3.5 mph - 0.00 in Snow Light Snow
4:39 AM 24.8 °F 19.1 °F 21.2 °F 86% 29.90 in 5.0 mi West 4.6 mph - 0.01 in   Overcast
4:54 AM 24.1 °F 18.2 °F 21.0 °F 88% 29.99 in 6.0 mi West 4.6 mph - 0.01 in   Overcast
5:14 AM 24.8 °F 14.0 °F 21.2 °F 86% 29.89 in 5.0 mi WNW 11.5 mph - N/A   Overcast
5:54 AM 21.9 °F 9.8 °F 18.0 °F 85% 29.99 in 7.0 mi West 12.7 mph - N/A   Overcast
6:25 AM 21.2 °F 8.3 °F 15.8 °F 80% 29.89 in 7.0 mi West 13.8 mph - N/A   Overcast
6:54 AM 19.9 °F 9.3 °F 15.1 °F 81% 29.99 in 7.0 mi West 9.2 mph - N/A   Overcast
7:54 AM 17.1 °F 2.5 °F 10.0 °F 74% 30.01 in 9.0 mi West 15.0 mph - N/A   Overcast
8:03 AM 17.6 °F 3.2 °F 8.6 °F 68% 29.91 in 9.0 mi West 15.0 mph 21.9 mph N/A   Overcast
8:54 AM 17.1 °F 2.5 °F 7.0 °F 65% 30.02 in 10.0 mi West 15.0 mph - N/A   Overcast
9:54 AM 16.0 °F 0.6 °F 8.1 °F 71% 30.02 in 9.0 mi West 16.1 mph - N/A   Overcast
10:54 AM 16.0 °F 0.1 °F 9.0 °F 74% 30.04 in 10.0 mi West 17.3 mph - 0.00 in   Overcast
11:54 AM 18.0 °F 3.1 °F 9.0 °F 68% 30.03 in 10.0 mi West 16.1 mph 21.9 mph N/A   Overcast
12:54 PM 19.0 °F 5.0 °F 9.0 °F 65% 30.03 in 10.0 mi West 15.0 mph - N/A   Mostly Cloudy
1:54 PM 19.9 °F 7.3 °F 10.0 °F 65% 30.04 in 10.0 mi West 12.7 mph - N/A   Overcast
2:54 PM 19.9 °F 6.2 °F 10.9 °F 68% 30.05 in 10.0 mi WSW 15.0 mph - N/A   Overcast
3:44 PM 21.2 °F 9.5 °F 12.2 °F 68% 29.98 in 6.0 mi WSW 11.5 mph - 0.00 in Snow Light Snow
3:54 PM 19.9 °F 6.7 °F 12.9 °F 74% 30.09 in 4.0 mi WSW 13.8 mph - 0.00 in Snow Light Snow
4:54 PM 21.0 °F 7.1 °F 14.0 °F 74% 30.10 in 5.0 mi West 16.1 mph - 0.00 in Snow Light Snow
5:54 PM 21.0 °F 8.6 °F 14.0 °F 74% 30.12 in 7.0 mi West 12.7 mph - 0.00 in   Overcast
6:49 PM 21.2 °F 9.5 °F 15.8 °F 80% 30.03 in 9.0 mi WSW 11.5 mph - 0.00 in   Overcast
6:54 PM 21.0 °F 9.9 °F 15.1 °F 78% 30.14 in 9.0 mi WSW 10.4 mph - 0.00 in   Overcast
7:54 PM 21.0 °F 9.3 °F 17.1 °F 85% 30.16 in 5.0 mi West 11.5 mph - 0.00 in Snow Light Snow
8:54 PM 21.0 °F 9.9 °F 16.0 °F 81% 30.17 in 9.0 mi West 10.4 mph - 0.00 in   Overcast
9:25 PM 19.4 °F 7.2 °F 15.8 °F 86% 30.08 in 9.0 mi West 11.5 mph - N/A   Scattered Clouds
9:54 PM 19.9 °F 10.1 °F 15.1 °F 81% 30.19 in 9.0 mi West 8.1 mph - N/A   Mostly Cloudy
10:14 PM 19.4 °F 8.6 °F 14.0 °F 80% 30.07 in 9.0 mi West 9.2 mph - N/A   Partly Cloudy
10:54 PM 17.1 °F 8.7 °F 12.9 °F 84% 30.19 in 9.0 mi WSW 5.8 mph - N/A   Clear
11:54 PM 15.1 °F 9.4 °F 12.0 °F 88% 30.19 in 8.0 mi SSW 3.5 mph - 0.01 in   Clear